Back to catalog

STARLINK-36353

AliveCommunicationsSSO
NORAD 67820·PAYLOAD·🇺🇸 United States

Launched Feb 15, 2026 from Vandenberg Space Force Base

Loading…

Next Passes (next 24 hours)

TLE

FreshSource: CelesTrak SupGP

Epoch: Sep 14, 2026, 15:20 UTC

1 67820C 26032Z   26257.63937500 -.00066854  00000+0 -20760-2 0  2575
2 67820  97.2852  84.1383 0001386  89.1150  54.9364 15.33461854    19

Track STARLINK-36353 in real time with AllMySat

Download on the App Store